Location: Unspecified
(40.8819°N, 0.0000°E)
Time: 06:12:29
(UTC+00:00)

BlueWalker 3 - Visible Passes

Search period start: 05 December 2023 00:00
Search period end: 15 December 2023 00:00
Orbit: 489 x 503 km, 53.2° (Epoch: 04 December)

Date Brightness Start Highest point End Pass type
(mag) Time Alt. Az. Time Alt. Az. Time Alt. Az.
05 Dec 3.9 04:32:43 28° E 04:32:43 28° E 04:34:48 10° ESE visible
05 Dec 3.4 06:07:17 16° W 06:09:14 23° SW 06:12:15 10° S visible
06 Dec 4.9 04:11:20 15° ESE 04:11:20 15° ESE 04:12:06 10° ESE visible
06 Dec 3.3 05:45:56 22° WSW 05:46:33 23° SW 05:49:36 10° S visible
07 Dec 3.5 05:24:38 22° SSW 05:24:38 22° SSW 05:26:56 10° S visible
08 Dec 4.3 05:03:23 15° S 05:03:23 15° S 05:04:15 10° S visible
12 Dec 4.0 18:49:10 10° SSW 18:50:35 20° S 18:50:35 20° S visible
13 Dec 3.0 18:26:24 10° SSW 18:29:12 32° SSE 18:29:12 32° SSE visible
14 Dec 2.7 18:03:36 10° SSW 18:07:08 35° SE 18:07:43 33° ESE visible
14 Dec 5.2 19:41:56 10° W 19:42:17 12° W 19:42:17 12° W visible
